Regional Weather Roundup
Issued by NWS

Home | Current Version | Previous Version | Text Only | Print | Product List | Glossary On
Versions: 1 2 3 4 5 6 7 8 9 10 11 12 13 14 15 16 17 18 19 20 21 22 23 24 25 26 27 28 29 30 31 32 33 34 35 36 37 38 39 40 41 42 43 44 45 46 47 48 49 50
000
ASUS44 KMEG 040810
RWRTN
TENNESSEE HOURLY STATE WEATHER ROUNDUP
NATIONAL WEATHER SERVICE MEMPHIS TN
300 AM CDT MON MAY 04 2015

TNZ002-004-019-021-049-052-054-088>092-040900-
WEST TENNESSEE

CITY           SKY/WX    TMP DP  RH WIND       PRES   REMARKS
MEMPHIS INTL   CLEAR     64  54  69 S7        30.08R
NWS MEMPHIS      N/A     64 N/A N/A MISG        N/A
JACKSON        MOCLDY    66  52  60 S6        30.10R
DYERSBURG      CLEAR     63  43  48 S3        30.10R
PARIS          CLEAR     59  48  67 S7        30.11R
LEXINGTON      CLEAR     52  52 100 CALM      30.11R
$$

TNZ008-025-027-028-033-062-065-066-040900-
NORTH MIDDLE TENNESSEE

CITY           SKY/WX    TMP DP  RH WIND       PRES   REMARKS
NASHVILLE      CLEAR     57  50  77 S5        30.14R
CLARKSVILLE    CLEAR     56  51  84 SE3       30.12R
SMYRNA         CLEAR     54  50  86 CALM      30.16R
COOKEVILLE     CLEAR     48  46  93 CALM      30.16R
CROSSVILLE     CLEAR     55  45  68 CALM      30.20R
$$

TNZ061-075-076-078-094-096-097-040900-
SOUTH MIDDLE TENNESSEE

CITY           SKY/WX    TMP DP  RH WIND       PRES   REMARKS
FAYETTEVILLE     N/A     57  48  72 S3        30.16R
TULLAHOMA      CLEAR     50  46  87 CALM      30.17R
WINCHESTER     CLEAR     55  48  76 CALM      30.17R
MCMINNVILLE    CLEAR     50  50 100 CALM      30.17R
COLUMBIA       CLEAR     54  52  94 CALM      30.13R
SHELBYVILLE    CLEAR     54  52  94 E3        30.16R
$$

TNZ017-018-042-046-047-040900-
NORTHEAST TENNESSEE

CITY           SKY/WX    TMP DP  RH WIND       PRES   REMARKS
TRI CITIES     MOCLDY    54  49  83 CALM      30.21R
ELIZABETHTON   MOSUNNY   54  45  71 NE3       30.22R
$$

TNZ012-013-036-069-073-074-040900-
CENTRAL EAST TENNESSEE

CITY           SKY/WX    TMP DP  RH WIND       PRES   REMARKS
KNOXVILLE      PTCLDY    54  49  83 CALM      30.18R
OAK RIDGE      CLEAR     53  50  89 CALM      30.20R
GATLINBURG     SUNNY     52  48  87 CALM      30.19R
MORRISTOWN     SUNNY     54  48  82 CALM      30.21R
$$

TNZ083-085-099-040900-
SOUTHEAST TENNESSEE

CITY           SKY/WX    TMP DP  RH WIND       PRES   REMARKS
CHATTANOOGA    CLEAR     55  50  83 CALM      30.18R
$$

SKY/WX REPORTED AS FAIR MEANS FEW OR NO CLOUDS BELOW
12 THOUSAND FEET.



USA.gov is the U.S. government's official web portal to all federal, state and local government web resources and services.